Regional Weather Roundup
Issued by NWS

Home | Current Version | Previous Version | Text Only | Print | Product List | Glossary On
Versions: 1 2 3 4 5 6 7 8 9 10 11 12 13 14 15 16 17 18 19 20 21 22 23 24 25 26 27 28 29 30 31 32 33 34 35 36 37 38 39 40 41 42 43 44 45 46 47 48 49 50
000
ASUS44 KMEG 260310
RWRTN
TENNESSEE HOURLY STATE WEATHER ROUNDUP
NATIONAL WEATHER SERVICE MEMPHIS TN
900 PM CST THU DEC 25 2014

TNZ002-004-019-021-049-052-054-088>092-260400-
WEST TENNESSEE

CITY           SKY/WX    TMP DP  RH WIND       PRES   REMARKS
MEMPHIS INTL   PTCLDY    43  34  70 S6        30.13S
NWS MEMPHIS      N/A     45 N/A N/A MISG        N/A
JACKSON        CLEAR     44  34  67 S8        30.15S
DYERSBURG      PTCLDY    43  27  52 S6        30.15S
UNION CITY     CLEAR     37  34  87 S9        30.13R WCI  31
PARIS          CLEAR     37  34  87 S7        30.14R WCI  32
HUNTINGDON     CLEAR     38  33  82 S7        30.15R WCI  33
LEXINGTON      CLEAR     41  34  75 S6        30.16R
SAVANNAH       CLEAR     39  36  87 SE5       30.18S
$$

TNZ008-025-027-028-033-062-065-066-260400-
NORTH MIDDLE TENNESSEE

CITY           SKY/WX    TMP DP  RH WIND       PRES   REMARKS
NASHVILLE      CLEAR     39  34  82 S6        30.17F WCI  35
CLARKSVILLE    CLEAR     40  33  76 S5        30.15R
SMYRNA         CLEAR     33  31  93 CALM      30.19S
COOKEVILLE     CLEAR     34  30  86 CALM      30.17S
CROSSVILLE     CLEAR     35  31  85 CALM      30.19S
$$

TNZ061-075-076-078-094-096-097-260400-
SOUTH MIDDLE TENNESSEE

CITY           SKY/WX    TMP DP  RH WIND       PRES   REMARKS
FAYETTEVILLE   CLEAR     37  34  87 MISG      30.20R
TULLAHOMA      CLEAR     37  34  87 S6        30.19R WCI  33
WINCHESTER     CLEAR     36  34  93 SE3       30.20R
MCMINNVILLE    CLEAR     34  34 100 CALM      30.17F
COLUMBIA       CLEAR     37  37 100 CALM      30.16R
SHELBYVILLE    CLEAR     36  34  93 S3        30.19R
$$

TNZ017-018-042-046-047-260400-
NORTHEAST TENNESSEE

CITY           SKY/WX    TMP DP  RH WIND       PRES   REMARKS
TRI CITIES     CLEAR     31  28  89 CALM      30.25S
ELIZABETHTON   CLEAR     27  27 100 CALM      30.25R
$$

TNZ012-013-036-069-073-074-260400-
CENTRAL EAST TENNESSEE

CITY           SKY/WX    TMP DP  RH WIND       PRES   REMARKS
KNOXVILLE      CLEAR     38  32  79 NE5       30.23F WCI  34
OAK RIDGE      CLEAR     34  31  88 CALM      30.25R
GATLINBURG     CLEAR     32  30  93 E3        30.23F
MORRISTOWN     CLEAR     36  32  87 CALM      30.24S
$$

TNZ083-085-099-260400-
SOUTHEAST TENNESSEE

CITY           SKY/WX    TMP DP  RH WIND       PRES   REMARKS
CHATTANOOGA    CLEAR     38  34  85 CALM      30.25R
$$

SKY/WX REPORTED AS FAIR MEANS FEW OR NO CLOUDS BELOW
12 THOUSAND FEET.



USA.gov is the U.S. government's official web portal to all federal, state and local government web resources and services.